PSLPS SIAQ-SBCY

Flight info

Callsign PSLPS
Flight time 0h -4m
Altitude 5500
Route DCT
Aircraft C510/L-V/N

Departure

Time 2026-05-08 19:26
Airport Bom Futuro Airport (SIAQ)

Arrival

Time 2026-05-08 19:22
Airport Várzea Grande–Marechal Rondon International Airport (SBCY)
Time Latitude Longitude Altitude Speed Heading
2026-05-08 19:21 -15.50672 -56.09924 740 ft 0 kts 342°
2026-05-08 19:24 -15.50671 -56.09924 741 ft 0 kts 354°
2026-05-08 19:24 -15.50668 -56.09923 741 ft 0 kts 33°
2026-05-08 19:24 -15.50660 -56.09904 739 ft 6 kts 89°
2026-05-08 19:24 -15.50670 -56.09860 742 ft 7 kts 103°
2026-05-08 19:25 -15.50664 -56.09843 743 ft 3 kts 56°
2026-05-08 19:25 -15.50661 -56.09816 744 ft 5 kts 142°
2026-05-08 19:25 -15.50886 -56.09714 749 ft 68 kts 157°
2026-05-08 19:25 -15.51483 -56.09497 843 ft 107 kts 163°
2026-05-08 19:26 -15.52275 -56.09274 1122 ft 127 kts 166°
2026-05-08 19:26 -15.53120 -56.08971 1544 ft 131 kts 150°
2026-05-08 19:26 -15.53970 -56.08598 2026 ft 135 kts 161°
2026-05-08 19:26 -15.54868 -56.08244 2469 ft 147 kts 155°
2026-05-08 19:27 -15.55917 -56.07782 2510 ft 175 kts 156°
2026-05-08 19:27 -15.57057 -56.07285 2508 ft 180 kts 157°
2026-05-08 19:27 -15.58225 -56.06775 2511 ft 184 kts 156°
2026-05-08 19:27 -15.59465 -56.06424 2508 ft 188 kts 178°
2026-05-08 19:28 -15.60805 -56.06448 2435 ft 192 kts 184°
2026-05-08 19:28 -15.62048 -56.06866 2353 ft 193 kts 215°
2026-05-08 19:28 -15.63140 -56.07700 2274 ft 196 kts 227°
2026-05-08 19:28 -15.64013 -56.08784 2193 ft 195 kts 236°
2026-05-08 19:29 -15.64843 -56.09882 2118 ft 193 kts 235°
2026-05-08 19:29 -15.65657 -56.10996 2028 ft 193 kts 240°
2026-05-08 19:29 -15.66319 -56.12182 2012 ft 187 kts 245°
2026-05-08 19:29 -15.66983 -56.13338 2006 ft 185 kts 244°
2026-05-08 19:30 -15.67847 -56.14294 1994 ft 183 kts 210°
2026-05-08 19:30 -15.69078 -56.14428 1997 ft 181 kts 165°
2026-05-08 19:30 -15.70237 -56.13950 1997 ft 179 kts 156°
2026-05-08 19:30 -15.71395 -56.13490 2008 ft 177 kts 158°
2026-05-08 19:31 -15.72468 -56.12893 1998 ft 174 kts 135°
2026-05-08 19:31 -15.72926 -56.11803 1989 ft 162 kts 85°
2026-05-08 19:31 -15.72610 -56.10734 1992 ft 153 kts 50°
2026-05-08 19:31 -15.71780 -56.10090 1898 ft 149 kts 22°
2026-05-08 19:32 -15.70764 -56.09815 1723 ft 155 kts
2026-05-08 19:32 -15.69671 -56.09840 1509 ft 154 kts 351°
2026-05-08 19:32 -15.68687 -56.10059 1205 ft 138 kts 344°
2026-05-08 19:32 -15.67841 -56.10360 976 ft 119 kts 335°
2026-05-08 19:33 -15.67126 -56.10692 812 ft 109 kts 331°
2026-05-08 19:33 -15.66453 -56.11055 680 ft 106 kts 330°
2026-05-08 19:33 -15.65841 -56.11378 611 ft 89 kts 332°
2026-05-08 19:33 -15.65364 -56.11632 599 ft 53 kts 333°
2026-05-08 19:34 -15.65198 -56.11737 599 ft 9 kts 284°
2026-05-08 19:34 -15.65214 -56.11796 600 ft 9 kts 240°
2026-05-08 19:34 -15.65236 -56.11823 600 ft 4 kts 186°
2026-05-08 19:34 -15.65279 -56.11808 600 ft 10 kts 154°
2026-05-08 19:35 -15.65354 -56.11768 600 ft 15 kts 154°
2026-05-08 19:35 -15.65408 -56.11748 600 ft 4 kts 204°
2026-05-08 19:35 -15.65414 -56.11756 600 ft 4 kts 250°
2026-05-08 19:35 -15.65414 -56.11774 600 ft 2 kts 315°
2026-05-08 19:36 -15.65396 -56.11783 600 ft 0 kts 332°